{"data":{"norad_id":52864,"intl_designator":"2022-062AL","name":"STARLINK-4267","alt_names":[],"object_type":"PAYLOAD","status":"ACTIVE","operator":null,"country":"US","launch_date":"2022-06-17","launch_site_code":"AFETR","launch_vehicle":null,"mission":null,"orbit_class":"UNKNOWN","rcs_meters":null,"size_class":null,"mass_kg":null,"dimensions":null,"purposes":["comms"],"wikipedia_slug":null,"has_3d_model":false,"image_url":null,"decayed_at":null,"tle_current":{"epoch":"2026-05-25T02:39:59.510016Z","epoch_age_seconds":58607,"freshness":"FRESH","line1":"1 52864U 22062AL  26145.11110544 -.00000353  00000+0 -40690-5 0  9998","line2":"2 52864  53.2158  41.0507 0001361  95.4996 264.6152 15.08843083217467","mean_motion":15.08843083,"eccentricity":0.0001361,"inclination_deg":53.2158,"raan_deg":41.0507,"arg_perigee_deg":95.4996,"mean_anomaly_deg":264.6152,"bstar":-4.069e-6,"rev_number":21746,"period_min":95.437359671417,"perigee_km":538.79244324412,"apogee_km":540.67548772093,"semimajor_km":6917.8709654825,"source":"CELESTRAK","updated_at":"2026-05-25T13:38:17.248045Z"}}}